[[{"header":{"parameterUnit":"m.s-1","parameterCategory":1,"la1":30.2991,"la2":30.254,"lo1":-89.0895,"lo2":-89.0444,"dy":0.0017,"dx":0.0017,"nx":28,"ny":28,"refTime":"2025-09-18T21:00:00:Z","depth":0,"parameterNumber":2,"parameterNumberName":"U-component_of_WINDS"},"data":[0,0,0,0,0,0,0,0,0,0,0,0,0,0,0,0,0,0,0,0,0,0,0,0,0,0,0,0,0,0,0,0,0,0,0,0,0,0,0,0,0,0,0,0,0,0,0,0,0,0,0,0,0,0,0,0,0,0,0.5755,0.5755,0,0.5758,0.5758,0.5758,0.5758,0.5758,0.5758,0.5758,0.576,0.576,0.576,0,0,0,0,0,0,0,0,0,0,0,0,0,0.5749,0.575,0.5755,0.5755,0.5755,0.5758,0.5758,0.5758,0.5758,0.5758,0.5758,0.5758,0.576,0.576,0.576,0,0,0,0,0,0,0,0,0,0,0,0,0,0.5752,0.575,0.5755,0.5756,0.5756,0.5758,0.5758,0.5758,0.5758,0.5758,0.5758,0.5758,0.576,0.576,0.576,0.5762,0,0,0.576,0.576,0,0,0,0,0,0,0,0,0.5752,0.5752,0.5756,0.5756,0.5756,0.5758,0.5757,0.5759,0.5758,0.5757,0.5758,0.5758,0.5759,0.5759,0.576,0.5762,0.5762,0.576,0.576,0.576,0.5761,0,0,0,0,0,0,0,0.5752,0.5752,0.5756,0.5756,0.5756,0.5756,0.5756,0.5757,0.5758,0.5757,0.5757,0.5758,0.5759,0.576,0.576,0.5762,0.576,0.576,0.5761,0.5761,0.5766,0.5766,0,0,0,0,0,0,0.5752,0.5752,0.5756,0.5757,0.5754,0.5756,0.5756,0.5757,0.5758,0.5759,0.5758,0.5758,0.576,0.576,0.576,0.5762,0.576,0.5761,0.5761,0.5766,0.5766,0.5766,0,0,0,0,0,0,0.5752,0.5752,0.5756,0.5754,0.5755,0.5756,0.5757,0.5757,0.5758,0.5759,0.5759,0.5758,0.576,0.576,0.5762,0.5762,0.5761,0.5761,0.5766,0.5766,0.5766,0.5767,0,0,0,0,0,0,0.5751,0.5752,0.5753,0.5754,0.5755,0.5758,0.5757,0.5757,0.5758,0.5758,0.5759,0.5759,0.576,0.5761,0.5762,0.5763,0.5761,0.5766,0.5766,0.5766,0.5767,0.5767,0.5767,0,0,0,0,0,0.5751,0.5752,0.5753,0.5753,0.5756,0.5758,0.5758,0.5759,0.5758,0.5759,0.576,0.5759,0.5762,0.5762,0.5762,0.5763,0.5766,0.5766,0.5766,0.5767,0.5767,0.5767,0,0,0,0,0,0,0.575,0.5753,0.5753,0.5755,0.5756,0.5758,0.5759,0.5759,0.576,0.576,0.576,0.5761,0.5762,0.5763,0.5762,0.5765,0.5764,0.5764,0.5764,0.5765,0.5765,0.5765,0.5761,0,0,0,0,0,0.575,0.5752,0.5754,0.5755,0.5756,0.5757,0.5758,0.5759,0.576,0.576,0.5761,0.5762,0.5763,0.5764,0.5765,0.5767,0.5767,0.5768,0.5768,0.5769,0.5769,0.577,0.577,0.5767,0.5767,0.5767,0,0,0.575,0.5752,0.5752,0.5755,0.5756,0.5758,0.5758,0.5759,0.576,0.576,0.5762,0.5763,0.5764,0.5766,0.5767,0.5767,0.577,0.5769,0.5769,0.5769,0.577,0.5771,0.5771,0.5767,0.5767,0.5767,0,0,0.5751,0.5752,0.5754,0.5755,0.5757,0.5758,0.5759,0.5761,0.5761,0.5763,0.5764,0.5765,0.5767,0.5768,0.5769,0.5771,0.5771,0.5772,0.5773,0.5774,0.5774,0.5775,0.5775,0.5776,0.5772,0.5772,0.5772,0,0.575,0.5753,0.5754,0.5756,0.5757,0.5758,0.576,0.5761,0.5763,0.5764,0.5764,0.5767,0.5768,0.577,0.5771,0.5772,0.5772,0.5771,0.5774,0.5774,0.5775,0.5776,0.5776,0.5772,0.5772,0.5772,0.5772,0,0.5752,0.5754,0.5755,0.5758,0.5759,0.5761,0.5763,0.5764,0.5765,0.5766,0.5768,0.577,0.5771,0.5772,0.5772,0.5775,0.5774,0.5774,0.5773,0.5775,0.5776,0.5776,0.5772,0.5772,0.5772,0.5772,0,0,0.5751,0.5756,0.5756,0.5758,0.576,0.5762,0.5764,0.5766,0.5767,0.5769,0.5771,0.5773,0.5773,0.5774,0.5775,0.5776,0.5778,0.5776,0.5776,0.5776,0.5781,0.5781,0.5781,0.5779,0.5779,0.5779,0.5781,0,0.5752,0.5756,0.5758,0.5761,0.5763,0.5764,0.5766,0.5768,0.5769,0.5771,0.5773,0.5774,0.5774,0.5775,0.5777,0.5778,0.5779,0.5778,0.578,0.578,0.5779,0.5782,0.5782,0.5784,0.5781,0.5781,0.5782,0,0.5753,0.5756,0.5759,0.5763,0.5763,0.5765,0.5768,0.577,0.5772,0.5773,0.5775,0.5775,0.5778,0.5777,0.578,0.5779,0.578,0.5781,0.5781,0.5781,0.578,0.5782,0.5784,0.5785,0.5782,0.5782,0.5782,0,0.5752,0.5756,0.5759,0.576,0.5764,0.5766,0.5767,0.577,0.5771,0.5774,0.5775,0.5777,0.5778,0.578,0.5782,0.5781,0.5785,0.5784,0.5786,0.5786,0.5786,0.5786,0.5789,0.5787,0.5787,0.5787,0.5787,0,0.5753,0.5755,0.5759,0.576,0.5763,0.5765,0.5768,0.5769,0.5772,0.5774,0.5775,0.5777,0.5779,0.5781,0.5783,0.5785,0.5786,0.5786,0.5787,0.5786,0.5786,0.5786,0.5786,0.5787,0.5787,0.5787,0.5787,0,0.5752,0.5754,0.5758,0.5762,0.5763,0.5764,0.5768,0.5769,0.5771,0.5774,0.5774,0.5777,0.578,0.5782,0.5785,0.5786,0.5789,0.5789,0.5788,0.5788,0.5789,0.5789,0.5792,0.5793,0.5791,0.5791,0.5791,0,0.5752,0.5753,0.5758,0.576,0.5761,0.5764,0.5766,0.5769,0.577,0.5774,0.5775,0.5778,0.5781,0.5785,0.5787,0.579,0.579,0.5791,0.579,0.579,0.579,0.579,0.579,0.5791,0.5791,0.5791,0.5791,0,0.5751,0.5753,0.5756,0.5759,0.5761,0.5764,0.5767,0.5768,0.5772,0.5774,0.5777,0.5779,0.5783,0.5785,0.5789,0.579,0.5791,0.5791,0.5792,0.5791,0.579,0.579,0.5788,0.5791,0.5791,0.5791,0.5791,0.5791,0.575,0.5752,0.5756,0.5759,0.5762,0.5765,0.5767,0.5769,0.5772,0.5776,0.5777,0.578,0.5784,0.5788,0.579,0.5792,0.5792,0.5793,0.5793,0.5793,0.5793,0.579,0.5793,0.5793,0.5793,0.5793,0.5793,0,0.575,0.5753,0.5756,0.576,0.5763,0.5764,0.5768,0.577,0.5773,0.5776,0.5779,0.5782,0.5785,0.5788,0.5792,0.5793,0.5794,0.5794,0.5794,0.5794,0.5793,0.5792,0.5793,0.5793,0.5793,0.5793,0.5793,0.5793,0.575,0.5753,0.5756,0.576,0.5763,0.5767,0.5768,0.5771,0.5774,0.5778,0.5781,0.5783,0.5786,0.579,0.5793,0.5794,0.5795,0.5795,0.5796,0.5794,0.5794,0.5794,0.5793,0.5795,0.5795,0.5797,0.5797,0.5797]},{"header":{"parameterUnit":"m.s-1","parameterCategory":1,"la1":30.2991,"la2":30.254,"lo1":-89.0895,"lo2":-89.0444,"dy":0.0017,"dx":0.0017,"nx":28,"ny":28,"refTime":"2025-09-18T21:00:00:Z","depth":0,"parameterNumber":3,"parameterNumberName":"V-component_of_WINDS"},"data":[0,0,0,0,0,0,0,0,0,0,0,0,0,0,0,0,0,0,0,0,0,0,0,0,0,0,0,0,0,0,0,0,0,0,0,0,0,0,0,0,0,0,0,0,0,0,0,0,0,0,0,0,0,0,0,0,0,0,-2.4096,-2.4096,0,-2.4171,-2.4172,-2.4173,-2.4166,-2.4164,-2.4163,-2.4162,-2.4238,-2.4241,-2.4244,0,0,0,0,0,0,0,0,0,0,0,0,0,-2.3942,-2.3945,-2.4095,-2.4096,-2.4097,-2.4171,-2.4172,-2.4173,-2.4166,-2.4164,-2.4163,-2.4162,-2.4237,-2.4241,-2.4244,0,0,0,0,0,0,0,0,0,0,0,0,0,-2.4012,-2.3946,-2.4095,-2.4103,-2.4104,-2.4171,-2.4172,-2.4174,-2.4166,-2.4164,-2.4163,-2.4161,-2.4236,-2.424,-2.4245,-2.4309,0,0,-2.4259,-2.4261,0,0,0,0,0,0,0,0,-2.4008,-2.4018,-2.4101,-2.4102,-2.4104,-2.4157,-2.4146,-2.4219,-2.4167,-2.4143,-2.4162,-2.416,-2.4212,-2.4219,-2.4237,-2.4312,-2.4316,-2.4259,-2.4262,-2.4264,-2.4266,0,0,0,0,0,0,0,-2.4004,-2.4015,-2.4125,-2.4102,-2.4104,-2.4101,-2.411,-2.416,-2.4186,-2.4144,-2.4144,-2.4153,-2.4213,-2.4232,-2.4239,-2.4317,-2.4259,-2.4263,-2.4266,-2.4268,-2.4448,-2.445,0,0,0,0,0,0,-2.3997,-2.4011,-2.4123,-2.4128,-2.4051,-2.4106,-2.4115,-2.4142,-2.4186,-2.4191,-2.4155,-2.4153,-2.4225,-2.4233,-2.4241,-2.4318,-2.4264,-2.4269,-2.4271,-2.4446,-2.4448,-2.445,0,0,0,0,0,0,-2.3994,-2.4007,-2.412,-2.4069,-2.4083,-2.411,-2.4141,-2.4144,-2.4164,-2.4194,-2.4198,-2.417,-2.4224,-2.4235,-2.4292,-2.4321,-2.4271,-2.4275,-2.4443,-2.4446,-2.4449,-2.4473,0,0,0,0,0,0,-2.399,-2.4006,-2.4031,-2.407,-2.4086,-2.417,-2.4143,-2.4147,-2.4172,-2.417,-2.4209,-2.4214,-2.4224,-2.4285,-2.4297,-2.4326,-2.4279,-2.4441,-2.4445,-2.4448,-2.447,-2.4477,-2.4483,0,0,0,0,0,-2.3984,-2.4035,-2.4033,-2.4046,-2.4118,-2.4172,-2.4181,-2.4192,-2.4174,-2.4199,-2.4219,-2.4212,-2.4316,-2.4291,-2.4304,-2.4335,-2.4439,-2.4444,-2.4448,-2.4467,-2.4475,-2.4482,0,0,0,0,0,0,-2.3998,-2.404,-2.4038,-2.4103,-2.4134,-2.417,-2.4202,-2.42,-2.4237,-2.4233,-2.4245,-2.4254,-2.4311,-2.4329,-2.4301,-2.4399,-2.4375,-2.4382,-2.4385,-2.4393,-2.44,-2.4393,-2.4282,0,0,0,0,0,-2.4009,-2.405,-2.4084,-2.4138,-2.4153,-2.4175,-2.4199,-2.4205,-2.4237,-2.425,-2.4274,-2.4305,-2.4344,-2.437,-2.4408,-2.4473,-2.4481,-2.4501,-2.4507,-2.4512,-2.4518,-2.4553,-2.4562,-2.4465,-2.4465,-2.4465,0,0,-2.4031,-2.4059,-2.4084,-2.4141,-2.4166,-2.4207,-2.4186,-2.4231,-2.4261,-2.4257,-2.4312,-2.4331,-2.4366,-2.4427,-2.4456,-2.4444,-2.4547,-2.4518,-2.4522,-2.4525,-2.4558,-2.4568,-2.4576,-2.4468,-2.4467,-2.4467,0,0,-2.4093,-2.4118,-2.4166,-2.4191,-2.4229,-2.4243,-2.4255,-2.4292,-2.4304,-2.436,-2.4358,-2.4394,-2.4462,-2.4487,-2.4509,-2.458,-2.4576,-2.4593,-2.4624,-2.4658,-2.4666,-2.4673,-2.4697,-2.4706,-2.4598,-2.4598,-2.4598,0,-2.4115,-2.4178,-2.419,-2.4235,-2.426,-2.4259,-2.4306,-2.433,-2.4378,-2.4395,-2.4382,-2.4467,-2.4491,-2.4558,-2.4575,-2.4594,-2.4606,-2.4587,-2.4664,-2.4671,-2.4677,-2.4701,-2.471,-2.46,-2.46,-2.46,-2.46,0,-2.4203,-2.4247,-2.428,-2.4327,-2.4356,-2.4402,-2.4421,-2.4448,-2.4452,-2.4467,-2.4524,-2.4553,-2.4596,-2.4613,-2.4617,-2.468,-2.4672,-2.4662,-2.4637,-2.4688,-2.471,-2.472,-2.4603,-2.4602,-2.4601,-2.4601,0,0,-2.4274,-2.4328,-2.434,-2.4361,-2.4404,-2.4437,-2.4483,-2.4526,-2.4549,-2.4583,-2.4621,-2.4679,-2.4669,-2.4694,-2.4701,-2.4731,-2.4784,-2.4716,-2.4717,-2.4727,-2.4855,-2.4862,-2.4872,-2.4782,-2.4784,-2.4785,-2.4851,0,-2.4339,-2.4421,-2.4433,-2.4505,-2.4544,-2.4544,-2.4584,-2.4614,-2.463,-2.4665,-2.4682,-2.4723,-2.4708,-2.4723,-2.4752,-2.4771,-2.481,-2.4767,-2.4816,-2.4818,-2.4806,-2.4884,-2.4891,-2.4952,-2.486,-2.4862,-2.4863,0,-2.4425,-2.4462,-2.4537,-2.4574,-2.4591,-2.4627,-2.4667,-2.4702,-2.4735,-2.4745,-2.4773,-2.4776,-2.4822,-2.4797,-2.4861,-2.4832,-2.4853,-2.4865,-2.4868,-2.4872,-2.4842,-2.4888,-2.4972,-2.4981,-2.4877,-2.4876,-2.4875,0,-2.4468,-2.4536,-2.459,-2.4609,-2.4653,-2.4678,-2.4697,-2.4729,-2.4754,-2.479,-2.4806,-2.4846,-2.4868,-2.4899,-2.4912,-2.4893,-2.4975,-2.4951,-2.4983,-2.4983,-2.5,-2.4998,-2.5086,-2.5015,-2.5015,-2.5015,-2.5015,0,-2.4539,-2.4585,-2.461,-2.4643,-2.4695,-2.4708,-2.4758,-2.4777,-2.4806,-2.4842,-2.4844,-2.4878,-2.4894,-2.493,-2.4941,-2.4992,-2.5002,-2.501,-2.5012,-2.501,-2.5008,-2.5022,-2.5018,-2.5018,-2.5017,-2.5017,-2.5016,0,-2.4595,-2.4614,-2.4673,-2.471,-2.472,-2.4756,-2.4788,-2.482,-2.4836,-2.4881,-2.4893,-2.4917,-2.496,-2.4977,-2.5029,-2.5036,-2.5094,-2.5094,-2.5083,-2.5083,-2.5114,-2.5111,-2.5214,-2.5227,-2.5148,-2.5149,-2.515,0,-2.4638,-2.4673,-2.4715,-2.4739,-2.476,-2.4799,-2.4825,-2.484,-2.4867,-2.4908,-2.4934,-2.4977,-2.5012,-2.508,-2.5102,-2.5141,-2.5141,-2.5174,-2.5147,-2.5143,-2.514,-2.5137,-2.514,-2.5179,-2.518,-2.518,-2.5181,0,-2.4712,-2.4719,-2.4757,-2.4798,-2.4829,-2.4861,-2.4893,-2.4913,-2.4933,-2.4963,-2.5006,-2.5034,-2.5087,-2.5129,-2.517,-2.5189,-2.5188,-2.519,-2.5199,-2.5196,-2.5187,-2.5191,-2.5096,-2.5187,-2.5186,-2.5186,-2.5186,-2.5185,-2.4762,-2.4793,-2.4827,-2.4868,-2.4894,-2.4924,-2.4955,-2.4975,-2.5013,-2.5057,-2.5064,-2.5111,-2.5143,-2.5198,-2.5219,-2.5255,-2.5247,-2.526,-2.5264,-2.5266,-2.5268,-2.5183,-2.5263,-2.5263,-2.5263,-2.5263,-2.5263,0,-2.4835,-2.4857,-2.4895,-2.494,-2.4972,-2.497,-2.5005,-2.5032,-2.5073,-2.5104,-2.5138,-2.5188,-2.5229,-2.5255,-2.5296,-2.532,-2.532,-2.533,-2.5327,-2.5332,-2.5274,-2.5261,-2.5329,-2.5328,-2.5328,-2.5328,-2.5328,-2.5328,-2.4876,-2.4929,-2.4941,-2.5006,-2.5027,-2.5073,-2.5093,-2.5121,-2.5145,-2.5201,-2.5235,-2.5252,-2.5281,-2.5324,-2.5361,-2.5367,-2.5382,-2.5392,-2.5397,-2.5343,-2.5336,-2.5329,-2.5317,-2.5395,-2.5395,-2.5452,-2.5452,-2.5453]}]]